| time (UTC) | temp F | wind direction | speed knots | gust knots | rain 1hr in | rain 24hr in | rain mn in | humidity % | barometer mb |
| 20260905220051 | 89 | 263 | 5.2 | 9.6 | 0.00 | 0.01 | 0.01 | 71 | 1011.5 |
| 20260905215526 | 89 | 268 | 2.6 | 7.8 | 0.00 | 0.10 | 0.01 | 71 | 1011.5 |
| 20260905215025 | 89 | 277 | 4.3 | 12.2 | 0.00 | 0.10 | 0.01 | 71 | 1011.6 |
| 20260905214551 | 89 | 269 | 6.1 | 12.2 | 0.00 | 0.10 | 0.01 | 69 | 1011.6 |
| 20260905214024 | 90 | 292 | 7.0 | 12.2 | 0.00 | 0.10 | 0.01 | 68 | 1011.7 |
| 20260905213525 | 90 | 272 | 7.0 | 10.4 | 0.00 | 0.10 | 0.01 | 70 | 1011.6 |
| 20260905213045 | 90 | 294 | 6.1 | 10.4 | 0.00 | 0.10 | 0.01 | 69 | 1011.5 |
| 20260905212530 | 90 | 259 | 7.0 | 10.4 | 0.00 | 0.10 | 0.01 | 68 | 1011.6 |
| 20260905212022 | 90 | 273 | 7.0 | 10.4 | 0.00 | 0.10 | 0.01 | 70 | 1011.6 |
| 20260905211547 | 90 | 276 | 5.2 | 9.6 | 0.00 | 0.10 | 0.01 | 69 | 1011.6 |
| 20260905211018 | 90 | 234 | 3.5 | 12.2 | 0.00 | 0.10 | 0.01 | 71 | 1011.6 |
| 20260905210518 | 90 | 268 | 6.1 | 12.2 | 0.00 | 0.10 | 0.01 | 70 | 1011.6 |
| 20260905210049 | 90 | 281 | 7.8 | 11.3 | 0.00 | 0.10 | 0.01 | 69 | 1011.5 |
| 20260905205524 | 90 | 282 | 5.2 | 11.3 | 0.00 | 0.55 | 0.01 | 67 | 1011.5 |
| 20260905205024 | 90 | 261 | 7.0 | 11.3 | 0.00 | 0.55 | 0.01 | 68 | 1011.6 |
| 20260905204544 | 90 | 267 | 5.2 | 9.6 | 0.00 | 0.55 | 0.01 | 67 | 1011.6 |
| 20260905204024 | 90 | 265 | 6.1 | 9.6 | 0.00 | 0.55 | 0.01 | 70 | 1011.6 |
| 20260905203521 | 90 | 263 | 3.5 | 9.6 | 0.00 | 0.55 | 0.01 | 69 | 1011.6 |
| 20260905203043 | 90 | 267 | 5.2 | 11.3 | 0.00 | 0.55 | 0.01 | 67 | 1011.5 |
| 20260905202522 | 90 | 294 | 5.2 | 11.3 | 0.00 | 0.55 | 0.01 | 68 | 1011.5 |
| 20260905202020 | 90 | 242 | 7.8 | 12.2 | 0.00 | 0.55 | 0.01 | 67 | 1011.5 |
| 20260905201544 | 90 | 269 | 7.8 | 12.2 | 0.00 | 0.55 | 0.01 | 67 | 1011.6 |
| 20260905201018 | 90 | 288 | 7.0 | 10.4 | 0.00 | 0.55 | 0.01 | 67 | 1011.7 |
| 20260905200527 | 90 | 257 | 6.1 | 11.3 | 0.00 | 0.55 | 0.01 | 66 | 1011.8 |
| 20260905200043 | 90 | 261 | 6.1 | 11.3 | 0.00 | 0.55 | 0.01 | 67 | 1011.7 |
| 20260905195523 | 90 | 282 | 6.1 | 9.6 | 0.00 | 0.58 | 0.01 | 68 | 1011.7 |
| 20260905195028 | 90 | 277 | 7.0 | 13.0 | 0.00 | 0.58 | 0.01 | 68 | 1011.7 |
| 20260905194549 | 90 | 218 | 9.6 | 13.0 | 0.00 | 0.58 | 0.01 | 67 | 1011.7 |
| 20260905194021 | 90 | 275 | 8.7 | 13.0 | 0.00 | 0.58 | 0.01 | 67 | 1011.7 |
| 20260905193522 | 90 | 274 | 7.8 | 12.2 | 0.00 | 0.58 | 0.01 | 69 | 1011.7 |
| 20260905193043 | 90 | 285 | 7.0 | 13.0 | 0.00 | 0.58 | 0.01 | 70 | 1011.7 |
| 20260905192519 | 90 | 268 | 7.8 | 13.0 | 0.00 | 0.58 | 0.01 | 69 | 1011.8 |
| 20260905192023 | 90 | 266 | 7.8 | 13.0 | 0.00 | 0.58 | 0.01 | 70 | 1011.8 |
| 20260905191541 | 90 | 248 | 6.1 | 11.3 | 0.00 | 0.58 | 0.01 | 70 | 1011.9 |
| 20260905191021 | 90 | 275 | 6.1 | 13.9 | 0.00 | 0.58 | 0.01 | 69 | 1012.1 |
| 20260905190524 | 89 | 271 | 6.1 | 13.9 | 0.00 | 0.58 | 0.01 | 69 | 1012.1 |
| 20260905190048 | 89 | 268 | 8.7 | 14.8 | 0.00 | 0.58 | 0.01 | 70 | 1012.1 |
| 20260905185523 | 91 | 254 | 8.7 | 14.8 | 0.00 | 0.61 | 0.01 | 69 | 1012.0 |
| 20260905185023 | 90 | 288 | 7.0 | 13.0 | 0.00 | 0.61 | 0.01 | 69 | 1012.0 |
| 20260905184555 | 90 | 261 | 6.1 | 13.0 | 0.00 | 0.61 | 0.01 | 69 | 1012.0 |
| 20260905184021 | 91 | 269 | 8.7 | 13.0 | 0.00 | 0.61 | 0.01 | 69 | 1012.1 |
| 20260905183522 | 91 | 238 | 7.0 | 12.2 | 0.00 | 0.61 | 0.01 | 72 | 1012.0 |
| 20260905183050 | 90 | 243 | 7.0 | 11.3 | 0.00 | 0.61 | 0.01 | 70 | 1011.9 |
| 20260905182525 | 90 | 257 | 4.3 | 11.3 | 0.00 | 0.61 | 0.01 | 76 | 1012.2 |
| 20260905182026 | 90 | 257 | 5.2 | 11.3 | 0.00 | 0.61 | 0.01 | 73 | 1012.3 |
| 20260905181548 | 89 | 277 | 2.6 | 7.8 | 0.00 | 0.61 | 0.01 | 78 | 1012.4 |
| 20260905181023 | 89 | 242 | 0.9 | 4.3 | 0.00 | 0.61 | 0.01 | 80 | 1012.4 |
| 20260905180524 | 87 | 253 | 0.9 | 4.3 | 0.00 | 0.61 | 0.01 | 82 | 1012.5 |
| 20260905180047 | 87 | 242 | 0.0 | 4.3 | 0.00 | 0.61 | 0.01 | 82 | 1012.5 |
| 20260905175518 | 86 | 219 | 0.9 | 4.3 | 0.00 | 0.61 | 0.01 | 83 | 1012.7 |
| 20260905175019 | 85 | 254 | 0.0 | 3.5 | 0.00 | 0.61 | 0.01 | 83 | 1012.7 |
| 20260905174542 | 84 | 229 | 0.9 | 3.5 | 0.00 | 0.61 | 0.01 | 82 | 1012.5 |
| 20260905174018 | 84 | 0 | 0.0 | 2.6 | 0.00 | 0.61 | 0.01 | 80 | 1012.7 |
| 20260905173525 | 84 | 258 | 0.0 | 2.6 | 0.00 | 0.61 | 0.01 | 80 | 1012.8 |
| 20260905173105 | 83 | 0 | 0.0 | 1.7 | 0.00 | 0.61 | 0.01 | 83 | 1012.9 |
| 20260905172524 | 82 | 0 | 0.0 | 4.3 | 0.00 | 0.61 | 0.01 | 82 | 1013.1 |
| 20260905172024 | 82 | 0 | 0.0 | 7.0 | 0.00 | 0.61 | 0.01 | 80 | 1013.2 |
| 20260905171547 | 82 | 209 | 0.9 | 11.3 | 0.00 | 0.61 | 0.01 | 79 | 1013.3 |
| 20260905171023 | 83 | 233 | 1.7 | 11.3 | 0.00 | 0.61 | 0.01 | 78 | 1013.4 |
| 20260905170523 | 84 | 225 | 7.0 | 16.5 | 0.00 | 0.61 | 0.01 | 78 | 1013.3 |
| 20260905170045 | 85 | 247 | 9.6 | 16.5 | 0.00 | 0.61 | 0.01 | 78 | 1013.3 |
| 20260905165519 | 88 | 238 | 2.6 | 7.8 | 0.00 | 0.61 | 0.01 | 76 | 1013.3 |
| 20260905165026 | 89 | 244 | 1.7 | 5.2 | 0.00 | 0.61 | 0.01 | 77 | 1013.3 |
| 20260905164553 | 89 | 0 | 0.9 | 7.0 | 0.00 | 0.61 | 0.01 | 80 | 1013.5 |
| 20260905164025 | 88 | 0 | 2.6 | 7.0 | 0.00 | 0.61 | 0.01 | 74 | 1013.5 |
| 20260905163528 | 88 | 247 | 4.3 | 7.0 | 0.00 | 0.61 | 0.01 | 78 | 1013.7 |
| 20260905163049 | 87 | 268 | 2.6 | 7.0 | 0.00 | 0.61 | 0.01 | 77 | 1013.7 |
| 20260905162523 | 87 | 272 | 0.9 | 7.0 | 0.00 | 0.61 | 0.01 | 77 | 1013.8 |
| 20260905162023 | 87 | 276 | 2.6 | 7.0 | 0.00 | 0.61 | 0.01 | 78 | 1013.9 |
| 20260905161600 | 88 | 251 | 3.5 | 9.6 | 0.00 | 0.61 | 0.01 | 76 | 1014.0 |
| 20260905161022 | 88 | 240 | 5.2 | 9.6 | 0.00 | 0.61 | 0.01 | 77 | 1014.0 |
| 20260905160524 | 87 | 249 | 5.2 | 7.8 | 0.00 | 0.61 | 0.01 | 78 | 1014.2 |
| 20260905160048 | 88 | 266 | 0.9 | 7.8 | 0.00 | 0.61 | 0.01 | 80 | 1014.2 |
| 20260905155528 | 87 | 247 | 4.3 | 7.8 | 0.00 | 0.61 | 0.01 | 79 | 1014.2 |
| 20260905155024 | 86 | 284 | 1.7 | 6.1 | 0.00 | 0.61 | 0.01 | 81 | 1014.3 |
| 20260905154546 | 87 | 248 | 0.9 | 8.7 | 0.00 | 0.61 | 0.01 | 79 | 1014.1 |
| 20260905154032 | 86 | 238 | 3.5 | 11.3 | 0.00 | 0.61 | 0.01 | 80 | 1014.3 |
| 20260905153525 | 87 | 265 | 2.6 | 11.3 | 0.00 | 0.61 | 0.01 | 77 | 1014.3 |
| 20260905153047 | 87 | 251 | 4.3 | 11.3 | 0.00 | 0.61 | 0.01 | 80 | 1014.1 |
| 20260905152523 | 87 | 236 | 3.5 | 9.6 | 0.00 | 0.61 | 0.01 | 80 | 1014.2 |
| 20260905152023 | 87 | 246 | 1.7 | 7.8 | 0.00 | 0.61 | 0.01 | 80 | 1014.1 |
| 20260905151544 | 87 | 0 | 2.6 | 7.8 | 0.00 | 0.61 | 0.01 | 85 | 1014.4 |
| 20260905151020 | 86 | 264 | 4.3 | 7.8 | 0.00 | 0.61 | 0.01 | 82 | 1014.5 |
| 20260905150523 | 86 | 248 | 1.7 | 6.1 | 0.00 | 0.61 | 0.01 | 83 | 1014.4 |
| 20260905150040 | 86 | 292 | 0.9 | 7.0 | 0.00 | 0.61 | 0.01 | 84 | 1014.4 |
| 20260905145525 | 86 | 250 | 3.5 | 9.6 | 0.00 | 0.61 | 0.01 | 84 | 1014.4 |
| 20260905145024 | 85 | 234 | 6.1 | 9.6 | 0.00 | 0.61 | 0.01 | 83 | 1014.4 |
| 20260905144541 | 85 | 267 | 4.3 | 8.7 | 0.00 | 0.61 | 0.01 | 84 | 1014.3 |
| 20260905144025 | 85 | 284 | 5.2 | 8.7 | 0.00 | 0.61 | 0.01 | 84 | 1014.3 |
| 20260905143524 | 85 | 255 | 1.7 | 7.0 | 0.00 | 0.61 | 0.01 | 87 | 1014.4 |
| 20260905143047 | 84 | 250 | 0.0 | 7.0 | 0.00 | 0.61 | 0.01 | 88 | 1014.4 |
| 20260905142522 | 85 | 242 | 1.7 | 7.0 | 0.00 | 0.61 | 0.01 | 89 | 1014.4 |
| 20260905142023 | 84 | 253 | 2.6 | 6.1 | 0.00 | 0.61 | 0.01 | 88 | 1014.4 |
| 20260905141542 | 83 | 243 | 1.7 | 5.2 | 0.00 | 0.61 | 0.01 | 89 | 1014.4 |
| 20260905141026 | 83 | 329 | 0.0 | 4.3 | 0.01 | 0.61 | 0.01 | 90 | 1014.5 |
| 20260905140523 | 83 | 245 | 0.9 | 4.3 | 0.01 | 0.61 | 0.01 | 90 | 1014.3 |
| 20260905140041 | 82 | 238 | 1.7 | 3.5 | 0.01 | 0.61 | 0.01 | 91 | 1014.4 |
| 20260905135525 | 82 | 257 | 1.7 | 3.5 | 0.01 | 0.61 | 0.01 | 93 | 1014.4 |
| 20260905135025 | 82 | 0 | 0.0 | 1.7 | 0.01 | 0.61 | 0.01 | 93 | 1014.4 |
| 20260905134544 | 82 | 0 | 0.0 | 1.7 | 0.01 | 0.61 | 0.01 | 95 | 1014.3 |
| 20260905134025 | 81 | 0 | 0.0 | 1.7 | 0.01 | 0.61 | 0.01 | 96 | 1014.3 |
| 20260905133522 | 80 | 0 | 0.0 | 3.5 | 0.01 | 0.61 | 0.01 | 96 | 1014.3 |
| 20260905133042 | 80 | 0 | 0.0 | 4.3 | 0.01 | 0.61 | 0.01 | 97 | 1014.4 |
| 20260905132523 | 79 | 104 | 0.9 | 4.3 | 0.01 | 0.61 | 0.01 | 97 | 1014.3 |
| 20260905132021 | 79 | 137 | 0.9 | 3.5 | 0.01 | 0.61 | 0.01 | 97 | 1014.3 |
| 20260905131540 | 78 | 0 | 0.9 | 3.5 | 0.01 | 0.61 | 0.01 | 97 | 1014.1 |
| 20260905131024 | 78 | 241 | 0.9 | 3.5 | 0.00 | 0.60 | 0.00 | 97 | 1014.2 |
| 20260905130524 | 78 | 0 | 0.0 | 0.9 | 0.00 | 0.60 | 0.00 | 97 | 1014.2 |
| 20260905130044 | 77 | 106 | 0.0 | 1.7 | 0.00 | 0.60 | 0.00 | 97 | 1014.2 |
| 20260905125526 | 77 | 0 | 0.0 | 1.7 | 0.00 | 0.60 | 0.00 | 97 | 1014.1 |
| 20260905125025 | 78 | 0 | 0.0 | 2.6 | 0.00 | 0.60 | 0.00 | 97 | 1014.2 |
| 20260905124542 | 77 | 0 | 0.0 | 3.5 | 0.00 | 0.60 | 0.00 | 97 | 1014.2 |
| 20260905124023 | 77 | 0 | 0.0 | 3.5 | 0.00 | 0.60 | 0.00 | 97 | 1014.2 |
| 20260905123520 | 77 | 0 | 0.0 | 2.6 | 0.00 | 0.60 | 0.00 | 97 | 1014.1 |
| 20260905123103 | 77 | 175 | 0.0 | 1.7 | 0.00 | 0.60 | 0.00 | 97 | 1014.1 |
| 20260905122525 | 76 | 0 | 0.0 | 1.7 | 0.00 | 0.60 | 0.00 | 97 | 1014.1 |
| 20260905122025 | 76 | 0 | 0.0 | 1.7 | 0.00 | 0.60 | 0.00 | 97 | 1014.0 |
| 20260905121553 | 76 | 0 | 0.0 | 0.0 | 0.00 | 0.60 | 0.00 | 97 | 1014.2 |
| 20260905121025 | 76 | 0 | 0.0 | 0.0 | 0.00 | 0.60 | 0.00 | 97 | 1014.1 |
| 20260905120524 | 76 | 0 | 0.0 | 0.0 | 0.00 | 0.60 | 0.00 | 97 | 1014.1 |
| 20260905120042 | 75 | 0 | 0.0 | 0.0 | 0.00 | 0.60 | 0.00 | 97 | 1014.0 |
| 20260905115526 | 75 | 0 | 0.0 | 0.0 | 0.00 | 0.60 | 0.00 | 97 | 1013.9 |
| 20260905115022 | 75 | 0 | 0.0 | 0.0 | 0.00 | 0.60 | 0.00 | 97 | 1013.8 |
| 20260905114542 | 75 | 0 | 0.0 | 0.0 | 0.00 | 0.60 | 0.00 | 97 | 1013.8 |
| 20260905114024 | 74 | 0 | 0.0 | 0.0 | 0.00 | 0.60 | 0.00 | 97 | 1013.8 |
| 20260905113525 | 74 | 0 | 0.0 | 0.0 | 0.00 | 0.60 | 0.00 | 97 | 1013.7 |
| 20260905113041 | 74 | 0 | 0.0 | 0.0 | 0.00 | 0.60 | 0.00 | 97 | 1013.6 |
| 20260905112525 | 74 | 0 | 0.0 | 0.0 | 0.00 | 0.60 | 0.00 | 97 | 1013.4 |
| 20260905112024 | 74 | 0 | 0.0 | 0.0 | 0.00 | 0.60 | 0.00 | 97 | 1013.5 |
| 20260905111543 | 74 | 0 | 0.0 | 0.0 | 0.00 | 0.60 | 0.00 | 97 | 1013.5 |
| 20260905111024 | 74 | 0 | 0.0 | 0.0 | 0.00 | 0.60 | 0.00 | 97 | 1013.6 |
| 20260905110523 | 74 | 0 | 0.0 | 0.0 | 0.00 | 0.60 | 0.00 | 97 | 1013.7 |
| 20260905110041 | 74 | 0 | 0.0 | 0.0 | 0.00 | 0.60 | 0.00 | 97 | 1013.6 |
| 20260905105518 | 74 | 0 | 0.0 | 0.0 | 0.00 | 0.60 | 0.00 | 97 | 1013.5 |
| 20260905105021 | 74 | 0 | 0.0 | 0.0 | 0.00 | 0.60 | 0.00 | 97 | 1013.3 |
| 20260905104544 | 74 | 0 | 0.0 | 0.0 | 0.00 | 0.60 | 0.00 | 97 | 1013.3 |
| 20260905104024 | 74 | 0 | 0.0 | 0.0 | 0.00 | 0.60 | 0.00 | 97 | 1013.3 |
| 20260905103527 | 74 | 0 | 0.0 | 1.7 | 0.00 | 0.60 | 0.00 | 97 | 1013.4 |
| 20260905103041 | 74 | 0 | 0.0 | 1.7 | 0.00 | 0.60 | 0.00 | 97 | 1013.4 |
| 20260905102525 | 74 | 116 | 0.0 | 1.7 | 0.00 | 0.60 | 0.00 | 97 | 1013.4 |
| 20260905102026 | 74 | 0 | 0.0 | 0.0 | 0.00 | 0.60 | 0.00 | 97 | 1013.3 |
| 20260905101557 | 74 | 0 | 0.0 | 0.0 | 0.00 | 0.60 | 0.00 | 97 | 1013.3 |
| 20260905101022 | 74 | 0 | 0.0 | 0.0 | 0.00 | 0.60 | 0.00 | 97 | 1013.3 |
| 20260905100523 | 74 | 0 | 0.0 | 0.0 | 0.00 | 0.60 | 0.00 | 97 | 1013.3 |
| 20260905100114 | 74 | 0 | 0.0 | 0.0 | 0.00 | 0.60 | 0.00 | 97 | 1013.2 |
| 20260905095526 | 75 | 0 | 0.0 | 0.0 | 0.00 | 0.60 | 0.00 | 97 | 1013.3 |
| 20260905095024 | 74 | 0 | 0.0 | 0.0 | 0.00 | 0.60 | 0.00 | 97 | 1013.2 |
| 20260905094548 | 74 | 0 | 0.0 | 0.0 | 0.00 | 0.60 | 0.00 | 97 | 1013.2 |
| 20260905094024 | 74 | 0 | 0.0 | 0.0 | 0.00 | 0.60 | 0.00 | 97 | 1013.1 |
| 20260905093525 | 74 | 0 | 0.0 | 0.0 | 0.00 | 0.60 | 0.00 | 97 | 1013.1 |
| 20260905093044 | 74 | 0 | 0.0 | 0.0 | 0.00 | 0.60 | 0.00 | 97 | 1013.1 |
| 20260905092526 | 74 | 0 | 0.0 | 0.0 | 0.00 | 0.60 | 0.00 | 97 | 1013.1 |
| 20260905092026 | 74 | 0 | 0.0 | 0.0 | 0.00 | 0.60 | 0.00 | 97 | 1013.1 |
| 20260905091554 | 74 | 0 | 0.0 | 0.0 | 0.00 | 0.60 | 0.00 | 97 | 1013.0 |
| 20260905091021 | 74 | 0 | 0.0 | 0.0 | 0.00 | 0.60 | 0.00 | 97 | 1013.0 |
| 20260905090525 | 74 | 0 | 0.0 | 0.0 | 0.00 | 0.60 | 0.00 | 97 | 1013.0 |
| 20260905090040 | 74 | 0 | 0.0 | 0.0 | 0.00 | 0.60 | 0.00 | 97 | 1013.0 |
| 20260905085527 | 75 | 0 | 0.0 | 0.0 | 0.00 | 0.60 | 0.00 | 97 | 1013.0 |
| 20260905085025 | 75 | 0 | 0.0 | 0.0 | 0.00 | 0.60 | 0.00 | 97 | 1012.9 |
| 20260905084549 | 75 | 0 | 0.0 | 0.0 | 0.00 | 0.60 | 0.00 | 97 | 1012.8 |
| 20260905084024 | 75 | 0 | 0.0 | 0.0 | 0.00 | 0.60 | 0.00 | 97 | 1012.8 |
| 20260905083520 | 75 | 0 | 0.0 | 0.0 | 0.00 | 0.60 | 0.00 | 97 | 1012.8 |
| 20260905083103 | 75 | 0 | 0.0 | 0.0 | 0.00 | 0.60 | 0.00 | 97 | 1012.8 |
| 20260905082523 | 75 | 0 | 0.0 | 0.0 | 0.00 | 0.60 | 0.00 | 97 | 1012.9 |
| 20260905082021 | 75 | 0 | 0.0 | 0.0 | 0.00 | 0.60 | 0.00 | 97 | 1012.9 |
| 20260905081541 | 75 | 0 | 0.0 | 0.0 | 0.00 | 0.60 | 0.00 | 97 | 1013.0 |
| 20260905081021 | 75 | 0 | 0.0 | 0.0 | 0.00 | 0.60 | 0.00 | 97 | 1013.0 |
| 20260905080527 | 75 | 0 | 0.0 | 0.0 | 0.00 | 0.60 | 0.00 | 97 | 1013.0 |
| 20260905080048 | 75 | 0 | 0.0 | 0.0 | 0.00 | 0.60 | 0.00 | 97 | 1013.0 |
| 20260905075523 | 75 | 0 | 0.0 | 0.0 | 0.00 | 0.60 | 0.00 | 97 | 1013.1 |
| 20260905075023 | 75 | 0 | 0.0 | 0.0 | 0.00 | 0.60 | 0.00 | 97 | 1013.0 |
| 20260905074547 | 75 | 0 | 0.0 | 0.0 | 0.00 | 0.60 | 0.00 | 97 | 1013.1 |
| 20260905074021 | 75 | 0 | 0.0 | 0.0 | 0.00 | 0.60 | 0.00 | 97 | 1013.0 |
| 20260905073523 | 75 | 0 | 0.0 | 0.0 | 0.00 | 0.60 | 0.00 | 97 | 1013.1 |
| 20260905073053 | 75 | 0 | 0.0 | 0.0 | 0.00 | 0.60 | 0.00 | 97 | 1013.0 |
| 20260905072523 | 75 | 0 | 0.0 | 0.0 | 0.00 | 0.60 | 0.00 | 97 | 1013.1 |
| 20260905072023 | 75 | 0 | 0.0 | 0.0 | 0.00 | 0.60 | 0.00 | 97 | 1013.1 |
| 20260905071543 | 75 | 0 | 0.0 | 0.0 | 0.00 | 0.60 | 0.00 | 97 | 1013.1 |
| 20260905071020 | 75 | 0 | 0.0 | 0.0 | 0.00 | 0.60 | 0.00 | 97 | 1013.0 |
| 20260905070527 | 75 | 0 | 0.0 | 0.0 | 0.00 | 0.60 | 0.00 | 97 | 1013.2 |
| 20260905070051 | 75 | 0 | 0.0 | 0.0 | 0.00 | 0.60 | 0.00 | 97 | 1013.3 |
| 20260905065525 | 75 | 0 | 0.0 | 0.0 | 0.00 | 0.60 | 0.00 | 97 | 1013.1 |
| 20260905065022 | 75 | 0 | 0.0 | 0.0 | 0.00 | 0.60 | 0.00 | 97 | 1013.3 |
| 20260905064607 | 75 | 0 | 0.0 | 0.0 | 0.00 | 0.60 | 0.00 | 97 | 1013.4 |
| 20260905064020 | 75 | 0 | 0.0 | 0.0 | 0.00 | 0.60 | 0.00 | 97 | 1013.4 |
| 20260905063528 | 75 | 0 | 0.0 | 0.0 | 0.00 | 0.60 | 0.00 | 97 | 1013.4 |
| 20260905063042 | 75 | 0 | 0.0 | 0.0 | 0.00 | 0.60 | 0.00 | 97 | 1013.4 |
| 20260905062519 | 75 | 0 | 0.0 | 0.0 | 0.00 | 0.60 | 0.00 | 97 | 1013.4 |
| 20260905062022 | 75 | 0 | 0.0 | 0.0 | 0.00 | 0.60 | 0.00 | 97 | 1013.5 |
| 20260905061545 | 75 | 0 | 0.0 | 0.0 | 0.00 | 0.60 | 0.00 | 97 | 1013.5 |
| 20260905061021 | 75 | 0 | 0.0 | 0.0 | 0.00 | 0.60 | 0.00 | 97 | 1013.5 |
| 20260905060524 | 75 | 0 | 0.0 | 0.0 | 0.00 | 0.60 | 0.00 | 97 | 1013.5 |
| 20260905060046 | 75 | 0 | 0.0 | 0.0 | 0.00 | 0.60 | 0.00 | 97 | 1013.6 |
| 20260905055522 | 75 | 0 | 0.0 | 0.0 | 0.00 | 0.60 | 0.00 | 97 | 1013.7 |
| 20260905055023 | 75 | 0 | 0.0 | 0.0 | 0.00 | 0.60 | 0.00 | 97 | 1013.7 |
| 20260905054620 | 75 | 0 | 0.0 | 0.0 | 0.00 | 0.60 | 0.00 | 97 | 1013.7 |
| 20260905054023 | 75 | 0 | 0.0 | 0.0 | 0.00 | 0.60 | 0.00 | 97 | 1013.8 |
| 20260905053523 | 76 | 0 | 0.0 | 0.0 | 0.00 | 0.60 | 0.00 | 97 | 1013.7 |
| 20260905053044 | 76 | 0 | 0.0 | 0.0 | 0.00 | 0.60 | 0.00 | 97 | 1013.8 |
| 20260905052523 | 75 | 0 | 0.0 | 0.0 | 0.00 | 0.60 | 0.00 | 97 | 1013.9 |
| 20260905052024 | 76 | 0 | 0.0 | 0.0 | 0.00 | 0.60 | 0.00 | 97 | 1013.9 |
| 20260905051542 | 76 | 0 | 0.0 | 0.0 | 0.00 | 0.60 | 0.00 | 97 | 1013.9 |
| 20260905051024 | 76 | 0 | 0.0 | 0.0 | 0.00 | 0.60 | 0.00 | 97 | 1014.0 |
| 20260905050527 | 76 | 0 | 0.0 | 0.0 | 0.00 | 0.60 | 0.00 | 97 | 1014.1 |
| 20260905050041 | 76 | 0 | 0.0 | 0.0 | 0.00 | 0.60 | 0.00 | 97 | 1014.2 |
| 20260905045528 | 76 | 0 | 0.0 | 0.0 | 0.00 | 0.60 | 0.00 | 97 | 1014.2 |
| 20260905045024 | 76 | 0 | 0.0 | 0.9 | 0.00 | 0.60 | 0.00 | 97 | 1014.3 |
| 20260905044545 | 76 | 0 | 0.0 | 0.9 | 0.00 | 0.60 | 0.00 | 97 | 1014.4 |
| 20260905044020 | 76 | 0 | 0.0 | 0.0 | 0.00 | 0.60 | 0.00 | 97 | 1014.4 |
| 20260905043523 | 76 | 0 | 0.0 | 0.0 | 0.00 | 0.60 | 0.00 | 97 | 1014.4 |
| 20260905043044 | 76 | 0 | 0.0 | 0.0 | 0.00 | 0.60 | 0.00 | 97 | 1014.4 |
| 20260905042519 | 76 | 0 | 0.0 | 0.0 | 0.00 | 0.60 | 0.00 | 97 | 1014.4 |
| 20260905042024 | 76 | 0 | 0.0 | 0.0 | 0.00 | 0.60 | 0.00 | 97 | 1014.4 |
| 20260905041540 | 76 | 0 | 0.0 | 0.0 | 0.00 | 0.60 | 0.00 | 97 | 1014.5 |
| 20260905041024 | 76 | 0 | 0.0 | 0.0 | 0.00 | 0.60 | 0.00 | 97 | 1014.5 |
| 20260905040528 | 76 | 0 | 0.0 | 1.7 | 0.00 | 0.60 | 0.00 | 97 | 1014.5 |
| 20260905040042 | 76 | 0 | 0.0 | 1.7 | 0.00 | 0.60 | 0.00 | 97 | 1014.5 |
| 20260905035523 | 76 | 153 | 0.9 | 1.7 | 0.00 | 0.60 | 0.60 | 97 | 1014.5 |
| 20260905035022 | 76 | 149 | 0.0 | 1.7 | 0.00 | 0.60 | 0.60 | 97 | 1014.5 |
| 20260905034549 | 76 | 0 | 0.0 | 3.5 | 0.00 | 0.60 | 0.60 | 97 | 1014.5 |
| 20260905034023 | 76 | 0 | 0.0 | 3.5 | 0.00 | 0.60 | 0.60 | 97 | 1014.6 |
| 20260905033523 | 76 | 167 | 0.0 | 2.6 | 0.00 | 0.60 | 0.60 | 97 | 1014.5 |
| 20260905033042 | 76 | 0 | 0.0 | 2.6 | 0.00 | 0.60 | 0.60 | 96 | 1014.6 |
| 20260905032519 | 76 | 146 | 0.0 | 4.3 | 0.00 | 0.60 | 0.60 | 97 | 1014.5 |
| 20260905032024 | 76 | 150 | 0.9 | 4.3 | 0.00 | 0.60 | 0.60 | 97 | 1014.6 |
| 20260905031550 | 76 | 166 | 1.7 | 4.3 | 0.00 | 0.60 | 0.60 | 97 | 1014.5 |
| 20260905031025 | 76 | 151 | 0.9 | 4.3 | 0.00 | 0.60 | 0.60 | 97 | 1014.6 |
| 20260905030525 | 76 | 172 | 0.9 | 3.5 | 0.00 | 0.60 | 0.60 | 96 | 1014.6 |
| 20260905030046 | 76 | 142 | 0.9 | 3.5 | 0.00 | 0.60 | 0.60 | 96 | 1014.5 |
| 20260905025525 | 76 | 137 | 1.7 | 3.5 | 0.00 | 0.60 | 0.60 | 96 | 1014.6 |
| 20260905025039 | 76 | 127 | 0.9 | 2.6 | 0.00 | 0.60 | 0.60 | 96 | 1014.6 |
| 20260905024554 | 76 | 0 | 0.0 | 2.6 | 0.00 | 0.60 | 0.60 | 97 | 1014.7 |
| 20260905024023 | 76 | 0 | 0.0 | 0.0 | 0.00 | 0.60 | 0.60 | 97 | 1014.8 |
| 20260905023518 | 76 | 0 | 0.0 | 0.0 | 0.00 | 0.60 | 0.60 | 96 | 1014.7 |
| 20260905023040 | 76 | 0 | 0.0 | 0.0 | 0.00 | 0.60 | 0.60 | 96 | 1014.7 |
| 20260905022524 | 76 | 0 | 0.0 | 0.0 | 0.00 | 0.60 | 0.60 | 96 | 1014.7 |
| 20260905022028 | 76 | 0 | 0.0 | 0.0 | 0.00 | 0.60 | 0.60 | 97 | 1014.7 |
| 20260905021549 | 76 | 0 | 0.0 | 0.0 | 0.00 | 0.60 | 0.60 | 96 | 1014.7 |
| 20260905021020 | 76 | 0 | 0.0 | 0.0 | 0.00 | 0.60 | 0.60 | 96 | 1014.6 |
| 20260905020527 | 76 | 0 | 0.0 | 0.0 | 0.00 | 0.60 | 0.60 | 96 | 1014.6 |
| 20260905020052 | 76 | 0 | 0.0 | 0.0 | 0.00 | 0.60 | 0.60 | 96 | 1014.7 |
| 20260905015523 | 76 | 0 | 0.0 | 0.0 | 0.00 | 0.61 | 0.60 | 96 | 1014.5 |
| 20260905015020 | 76 | 0 | 0.0 | 0.0 | 0.00 | 0.61 | 0.60 | 96 | 1014.6 |
| 20260905014543 | 76 | 0 | 0.0 | 0.0 | 0.00 | 0.61 | 0.60 | 96 | 1014.5 |
| 20260905014019 | 76 | 0 | 0.0 | 0.0 | 0.00 | 0.61 | 0.60 | 96 | 1014.4 |
| 20260905013526 | 76 | 0 | 0.0 | 0.0 | 0.00 | 0.61 | 0.60 | 96 | 1014.3 |
| 20260905013041 | 76 | 0 | 0.0 | 0.0 | 0.00 | 0.61 | 0.60 | 96 | 1014.3 |
| 20260905012526 | 76 | 0 | 0.0 | 0.0 | 0.00 | 0.61 | 0.60 | 96 | 1014.3 |
| 20260905012024 | 76 | 0 | 0.0 | 0.0 | 0.00 | 0.61 | 0.60 | 96 | 1014.2 |
| 20260905011552 | 76 | 0 | 0.0 | 0.0 | 0.00 | 0.61 | 0.60 | 96 | 1014.2 |
| 20260905011027 | 76 | 0 | 0.0 | 0.0 | 0.00 | 0.61 | 0.60 | 96 | 1014.3 |
| 20260905010525 | 76 | 0 | 0.0 | 1.7 | 0.00 | 0.61 | 0.60 | 96 | 1014.1 |
| 20260905010044 | 76 | 0 | 0.0 | 2.6 | 0.00 | 0.61 | 0.60 | 96 | 1014.1 |
| 20260905005523 | 76 | 49 | 0.9 | 2.6 | 0.00 | 0.69 | 0.60 | 96 | 1013.9 |
| 20260905005020 | 76 | 0 | 0.0 | 2.6 | 0.00 | 0.69 | 0.60 | 96 | 1014.0 |
| 20260905004544 | 76 | 105 | 0.9 | 2.6 | 0.00 | 0.69 | 0.60 | 96 | 1014.0 |
| 20260905004018 | 76 | 0 | 0.0 | 2.6 | 0.00 | 0.69 | 0.60 | 96 | 1014.0 |
| 20260905003528 | 76 | 105 | 0.9 | 1.7 | 0.00 | 0.69 | 0.60 | 96 | 1014.0 |
| 20260905003041 | 76 | 0 | 0.0 | 1.7 | 0.00 | 0.69 | 0.60 | 96 | 1013.9 |
| 20260905002522 | 76 | 181 | 0.0 | 0.9 | 0.00 | 0.69 | 0.60 | 96 | 1013.9 |
| 20260905002024 | 76 | 0 | 0.0 | 0.0 | 0.00 | 0.69 | 0.60 | 96 | 1013.8 |
| 20260905001544 | 76 | 0 | 0.0 | 0.0 | 0.00 | 0.69 | 0.60 | 96 | 1013.9 |
| 20260905001022 | 76 | 0 | 0.0 | 1.7 | 0.00 | 0.69 | 0.60 | 96 | 1013.9 |
| 20260905000526 | 76 | 0 | 0.0 | 1.7 | 0.00 | 0.69 | 0.60 | 96 | 1013.9 |
| 20260905000042 | 76 | 0 | 0.0 | 1.7 | 0.00 | 0.69 | 0.60 | 96 | 1014.1 |
| 20260904235522 | 76 | 0 | 0.0 | 4.3 | 0.00 | 1.08 | 0.60 | 96 | 1014.1 |
| 20260904235020 | 76 | 0 | 0.9 | 4.3 | 0.00 | 1.08 | 0.60 | 96 | 1014.2 |
| 20260904234541 | 76 | 158 | 0.9 | 3.5 | 0.00 | 1.08 | 0.60 | 96 | 1014.3 |
| 20260904234026 | 76 | 219 | 0.9 | 3.5 | 0.00 | 1.08 | 0.60 | 96 | 1014.3 |
| 20260904233524 | 77 | 0 | 0.0 | 1.7 | 0.00 | 1.08 | 0.60 | 96 | 1014.3 |
| 20260904233040 | 77 | 0 | 0.0 | 1.7 | 0.00 | 1.08 | 0.60 | 96 | 1014.2 |
| 20260904232524 | 77 | 0 | 0.0 | 0.9 | 0.00 | 1.08 | 0.60 | 96 | 1014.3 |
| 20260904232022 | 77 | 0 | 0.0 | 1.7 | 0.00 | 1.08 | 0.60 | 96 | 1014.3 |
| 20260904231601 | 77 | 0 | 0.0 | 1.7 | 0.00 | 1.08 | 0.60 | 96 | 1014.3 |
| 20260904231023 | 77 | 0 | 0.0 | 0.0 | 0.00 | 1.08 | 0.60 | 96 | 1014.2 |
| 20260904230523 | 77 | 0 | 0.0 | 0.0 | 0.00 | 1.08 | 0.60 | 96 | 1014.2 |
| 20260904230043 | 76 | 0 | 0.0 | 0.0 | 0.00 | 1.08 | 0.60 | 96 | 1014.3 |
| 20260904225519 | 76 | 0 | 0.0 | 0.0 | 0.00 | 1.08 | 0.60 | 96 | 1014.4 |
| 20260904225025 | 76 | 0 | 0.0 | 0.0 | 0.00 | 1.08 | 0.60 | 96 | 1014.5 |
| 20260904224541 | 76 | 0 | 0.0 | 3.5 | 0.01 | 1.08 | 0.60 | 96 | 1014.5 |
| 20260904224024 | 76 | 0 | 0.0 | 3.5 | 0.01 | 1.08 | 0.60 | 95 | 1014.3 |
| 20260904223524 | 76 | 0 | 0.0 | 1.7 | 0.01 | 1.08 | 0.60 | 95 | 1014.4 |
| 20260904223048 | 76 | 0 | 0.0 | 1.7 | 0.02 | 1.08 | 0.60 | 95 | 1014.0 |
| 20260904222526 | 75 | 70 | 0.9 | 1.7 | 0.04 | 1.08 | 0.60 | 95 | 1014.2 |
| 20260904222023 | 75 | 0 | 0.0 | 0.9 | 0.07 | 1.08 | 0.60 | 95 | 1014.0 |
| 20260904221547 | 75 | 0 | 0.0 | 1.7 | 0.08 | 1.08 | 0.60 | 95 | 1013.7 |
| 20260904221021 | 75 | 0 | 0.0 | 3.5 | 0.08 | 1.08 | 0.60 | 95 | 1013.1 |
| 20260904220523 | 75 | 266 | 0.0 | 3.5 | 0.08 | 1.08 | 0.60 | 95 | 1012.8 |